Regional Weather Roundup
Issued by NWS Green Bay, WI

Home | Current Version | Previous Version | Text Only | Print | Product List | Glossary On
Versions: 1 2 3 4 5 6 7 8 9 10 11 12 13 14 15 16 17 18 19 20 21 22 23 24 25 26 27 28 29 30 31 32 33 34 35 36 37 38 39 40 41 42 43 44 45 46 47 48 49 50
000
ASUS43 KGRB 250111
RWRGRB

NORTH-CENTRAL AND NORTHEAST WISCONSIN REGIONAL WEATHER ROUNDUP
NATIONAL WEATHER SERVICE GREEN BAY WI
700 PM CST TUE JAN 24 2017

WIZ005-009-010>012-018-019-250200-
NORTH CENTRAL WISCONSIN

CITY           SKY/WX    TMP DP  RH WIND       PRES   REMARKS
IRONWOOD       CLOUDY    31  28  89 E3        29.83F
MANITOWISH WTR CLOUDY    31  31 100 CALM      29.80S
ARBOR VITAE    CLOUDY    34  32  94 CALM      29.80S
EAGLE RIVER    CLOUDY    32  32 100 NE3       29.79F
LAND O LAKES   LGT SNOW  33  33 100 CALM      29.81F
RHINELANDER    CLOUDY    35  31  85 NE5       29.79F
PHILLIPS       CLOUDY    32  30  92 E5        29.79S
ANTIGO         CLOUDY    33  32  96 NE7       29.80S
TOMAHAWK       CLOUDY    33  29  86 CALM      29.80S
MERRILL        CLOUDY    34  31  88 CALM        N/A
$$

WIZ013-073-250200-
NORTHEAST WISCONSIN

CITY           SKY/WX    TMP DP  RH WIND       PRES   REMARKS
IRON MOUNTAIN  CLOUDY    34  31  88 N3        29.80S
MARINETTE      NOT AVBL
OCONTO         CLOUDY    34  33  95 CALM      29.82S
$$

WIZ017-030-035>037-045-250200-
CENTRAL WISCONSIN

CITY           SKY/WX    TMP DP  RH WIND       PRES   REMARKS
MEDFORD        CLOUDY    32  28  86 NE9       29.77F
WAUSAU         CLOUDY    35  29  78 NE5       29.77F
MOSINEE        CLOUDY    34  32  93 NE6       29.79F
MARSHFIELD     CLOUDY    33  28  81 E7        29.77F
WISC RAPIDS    CLOUDY    34  30  85 E6        29.79F
STEVENS POINT  CLOUDY    32  30  91 NE7       29.79F
WAUPACA        CLOUDY    37  32  83 CALM      29.80F
SHAWANO        CLOUDY    37  33  85 CALM      29.82S
CLINTONVILLE   CLOUDY    36  32  87 CALM      29.80F
WAUTOMA        CLOUDY    34  31  88 NE6       29.79F
$$

WIZ038-039-048-051-250200-
FOX VALLEY

CITY           SKY/WX    TMP DP  RH WIND       PRES   REMARKS
NWS GREEN BAY  CLOUDY    38  34  85 N3        29.82F
APPLETON       CLOUDY    36  34  93 VRB5      29.78F
OSHKOSH        CLOUDY    35  31  85 NE5       29.79F
FOND DU LAC    CLOUDY    36  30  79 E6        29.79F
$$

WIZ022-050-052-250200-
EAST CENTRAL WISCONSIN

CITY           SKY/WX    TMP DP  RH WIND       PRES   REMARKS
EPHRAIM        CLOUDY    34  34 100 CALM      29.80F
WASHINGTON ISL CLOUDY    33  33  99 N3        29.81F
STURGEON BAY   CLOUDY    35  35 100 CALM      29.82F
MANITOWOC      CLOUDY    37  34  89 MISG      29.81F
SHEBOYGAN      CLOUDY    36  32  85 CALM      29.80F
$$

LMZ563-521-522-541>543-250200-
LAKESHORE

STATION/POSITION TIME  TEMP    WIND        PRES    VSBY  WAVE
                       AIR SEA DIR/SP/G                  HT/PER
                 (UTC) (F)     (DEG/KT/KT) (MB)    (MI)  (FT/S)
SHEBOYGAN LKSHOR 0100   38      20/  5/  6 1009.4F
KEWAUNEE LKSHORE 0048   36      CALM  /  1 1009.7F
NORTHPORT PIER   0040   36        CALM     1009.8R
SISTER BAY LKSHO 0035   34        CALM       N/A
CHAMBERS ISLAND  0040   34        CALM     1009.5S
MENOMINEE LKSHOR 0048   36      10/  5/  5 1009.0F
$$



USA.gov is the U.S. government's official web portal to all federal, state and local government web resources and services.